Hourly Data Report for October 29, 2015

All times are specified in Local Standard Time (LST). Add 1 hour to adjust for Daylight Saving Time where and when it is observed.

KUGLUKTUK A
NUNAVUT

67°49'00.000" N
115°08'38.000" W
22.60 m
2300903
71938
YCO

Download Data

Hourly Data (October 2015)
Hourly Data Report for October 29, 2015
Temp Definition
°C
Dew Point Temp Definition
°C
Rel Hum Definition
%
Wind Dir Definition
10's deg

Wind Spd Definition
km/h
Visibility Definition
km
Stn Press Definition
kPa
Hmdx Definition


Wind Chill Definition


Weather Definition


TIME
00:00 Legend Double Dagger -8.6 -10.1 89 12 13 16.1 101.27   -15 Snow
01:00 Legend Double Dagger -7.6 -9.1 89 9 26 19.3 101.21   -16 Snow,Blowing Snow
02:00 Legend Double Dagger -7.6 -9.3 88 9 33 19.3 101.15   -17 Snow,Blowing Snow
03:00 Legend Double Dagger -8.1 -9.8 88 10 22 24.1 101.10   -16 LegendNANA
04:00 Legend Double Dagger -8.8 -10.7 86 10 20 24.1 101.06   -16 Snow
05:00 Legend Double Dagger -8.8 -10.9 85 9 23 24.1 100.96   -17 Cloudy
06:00 Legend Double Dagger -8.8 -11.3 82 9 27 24.1 100.89   -18 LegendNANA
07:00 Legend Double Dagger -8.9 -11.1 84 9 35 24.1 100.79   -19 Blowing Snow
08:00 Legend Double Dagger -9.2 -11.7 82 10 30 24.1 100.77   -18 Blowing Snow
09:00 Legend Double Dagger -9.5 -12.7 78 9 27 24.1 100.73   -18 Blowing Snow
10:00 Legend Double Dagger -9.4 -12.6 78 9 31 24.1 100.64   -19 Blowing Snow
11:00 Legend Double Dagger -9.1 -12.4 77 9 33 24.1 100.55   -19 Blowing Snow
12:00 Legend Double Dagger -8.7 -12.2 76 9 30 24.1 100.52   -18 Blowing Snow
13:00 Legend Double Dagger -8.6 -12.3 75 10 27 24.1 100.44   -17 Blowing Snow
14:00 Legend Double Dagger -8.5 -12.7 72 9 26 24.1 100.37   -17 Mostly Cloudy
15:00 Legend Double Dagger -8.3 -12.7 71 9 27 24.1 100.28   -17 LegendNANA
16:00 Legend Double Dagger -8.3 -12.8 70 9 23 24.1 100.26   -16 LegendNANA
17:00 Legend Double Dagger -8.5 -12.5 73 10 23 16.1 100.23   -17 Cloudy
18:00 Legend Double Dagger -8.9 -12.1 78 11 26 6.4 100.16   -18 Snow,Blowing Snow
19:00 Legend Double Dagger -8.8 -11.7 80 10 23 4.8 100.10   -17 Snow,Blowing Snow
20:00 Legend Double Dagger -8.8 -10.7 86 10 29 3.2 100.04   -18 Snow,Blowing Snow
21:00 Legend Double Dagger -8.5 -10.6 85 10 29 3.2 100.00   -17 Snow,Blowing Snow
22:00 Legend Double Dagger -8.4 -10.6 84 10 27 4.8 99.97   -17 Snow,Blowing Snow
23:00 Legend Double Dagger -8.4 -10.5 85 10 23 3.2 99.94   -16 Snow,Blowing Snow

Notes on Data Quality.

Legend

  • E = Estimated
  • M = Missing
  • NA = Not Available
  • ‡ = Partner data that is not subject to review by the National Climate Archives
Date modified: